Coffeyville, KS

4:31 PM CDT on August 19, 2017 (GMT -0500)
Coffeyville Municipal

Weather History for KCFV - November, 2011

Change the Weather History Date:

Tuesday, November 1, 2011

  Actual Average Record
Temperature  
Mean Temperature 64 °F -  
Max Temperature 77 °F 61 °F 81 °F (2016)
Min Temperature 52 °F 42 °F 25 °F (2014)
Degree Days  
Heating Degree Days 2    
Growing Degree Days 14 (Base 50)    
Moisture  
Dew Point 44 °F    
Average Humidity 50    
Maximum Humidity 71    
Minimum Humidity 37    
Precipitation  
Precipitation 0.00 in - - ()
Sea Level Pressure  
Sea Level Pressure 29.98 in    
Wind  
Wind Speed 12 mph (South)    
Max Wind Speed 29 mph    
Max Gust Speed 37 mph    
Visibility 10 miles    
Events      
Averages and records for this station are not official NWS values.
T = Trace of Precipitation, MM = Missing Value Source: NWS Daily Summary

Daily Weather History Graph

Daily Weather History Graph

Search for Another Location

Airport or City:

Trip Planner

Search our weather history database for the weather conditions in past years. The results will help you decide how hot, cold, wet, or windy it might be!

Date:

Astronomy

Nov. 01, 2011 Rise Set
Actual Time 7:46 AM CDT 6:24 PM CDT
Civil Twilight 7:19 AM CDT 6:51 PM CDT
Nautical Twilight 6:48 AM CDT 7:22 PM CDT
Astronomical Twilight 6:18 AM CDT 7:52 PM CDT
Moon 1:32 PM CDT (11/1) No Moon Set
Length of Visible Light 11h 32m
Length of Day
10h 38m
Waxing Crescent, 40% of the Moon is Illuminated
Nov 1
Waxing Crescent
Nov 2
First Quarter
Nov 10
Full
Nov 18
Last Quarter
Nov 25
New

Hourly Weather History & Observations

Time (CDT) Temp. Dew Point Humidity Pressure Visibility Wind Dir Wind Speed Gust Speed Precip Events Conditions
12:52 AM 55.0 °F 43.0 °F 64% 30.04 in 10.0 mi SSE 3.5 mph - N/A   Clear
1:52 AM 52.0 °F 43.0 °F 71% 30.04 in 10.0 mi SSE 3.5 mph - N/A   Clear
2:52 AM 55.9 °F 44.1 °F 64% 30.03 in 10.0 mi South 6.9 mph - N/A   Clear
3:52 AM 55.9 °F 43.0 °F 62% 30.02 in 10.0 mi South 9.2 mph - N/A   Clear
4:52 AM 57.0 °F 42.1 °F 57% 30.01 in 10.0 mi South 10.4 mph - N/A   Clear
5:52 AM 57.9 °F 42.1 °F 56% 30.01 in 10.0 mi South 13.8 mph - N/A   Clear
6:52 AM 57.9 °F 42.1 °F 56% 30.01 in 10.0 mi South 16.1 mph 21.9 mph N/A   Clear
7:52 AM 59.0 °F 42.1 °F 53% 30.00 in 10.0 mi South 16.1 mph 23.0 mph N/A   Clear
8:52 AM 62.1 °F 43.0 °F 50% 30.01 in 10.0 mi South 18.4 mph 27.6 mph N/A   Clear
9:52 AM 64.9 °F 44.1 °F 47% 30.02 in 10.0 mi South 19.6 mph 27.6 mph N/A   Clear
10:52 AM 68.0 °F 46.0 °F 45% 30.01 in 10.0 mi South 20.7 mph 31.1 mph N/A   Clear
11:52 AM 71.1 °F 46.0 °F 41% 29.99 in 10.0 mi South 27.6 mph 36.8 mph N/A   Clear
12:52 PM 73.9 °F 46.9 °F 38% 29.97 in 10.0 mi South 21.9 mph 28.8 mph N/A   Clear
2:52 PM 75.9 °F 48.0 °F 37% 29.91 in 10.0 mi South 23.0 mph 36.8 mph N/A   Clear
3:52 PM 75.9 °F 48.0 °F 37% 29.91 in 10.0 mi South 24.2 mph 29.9 mph N/A   Clear
4:52 PM 75.0 °F 46.9 °F 37% 29.90 in 10.0 mi South 28.8 mph 36.8 mph N/A   Clear
5:52 PM 73.0 °F 46.9 °F 39% 29.90 in 10.0 mi South 21.9 mph 31.1 mph N/A   Clear
6:52 PM 70.0 °F 46.0 °F 42% 29.91 in 10.0 mi SSE 12.7 mph 21.9 mph N/A   Clear
7:52 PM 68.0 °F 44.1 °F 42% 29.93 in 10.0 mi South 10.4 mph - N/A   Clear
8:52 PM 64.0 °F 44.1 °F 48% 29.94 in 10.0 mi South 10.4 mph - N/A   Clear
9:52 PM 64.0 °F 44.1 °F 48% 29.95 in 10.0 mi South 10.4 mph - N/A   Clear
10:52 PM 60.1 °F 43.0 °F 53% 29.96 in 10.0 mi SSE 5.8 mph - N/A   Clear
11:52 PM 59.0 °F 42.1 °F 53% 29.97 in 10.0 mi South 5.8 mph - N/A   Clear